Overview Statistics Trail Chart Weather Telemetry Raw packets
 

This is the latest recevied weather packets stored in our database for station/object PY2WOA-13. If no packets are shown the sender has not sent any weather packets the latest 10 day(s).

<< 15 16 17 18 19 20 >>
Time Temp. Humidity Pressure Rain* Wind** Luminosity Snow
1787915103 22.78° C 75% 1012.1 hPa - - - -
1787913304 21.11° C 79% 1012.2 hPa - - - -
1787911504 20° C 82% 1011.7 hPa - - - -
1787909704 20° C 83% 1011.8 hPa - - - -
1787907904 20° C 85% 1011.6 hPa - - - -
1787906104 20° C 84% 1011.2 hPa - - - -
1787904304 20° C 85% 1011 hPa - - - -
1787902504 20° C 83% 1011.1 hPa - - - -
1787900703 20° C 81% 1010.9 hPa - - - -
1787898904 20.56° C 80% 1010.7 hPa - - - -
1787897104 21.11° C 81% 1010.5 hPa - - - -
1787895304 20.56° C 78% 1011.1 hPa - - - -
1787893504 21.11° C 77% 1011.3 hPa - - - -
1787891703 21.67° C 75% 1011.3 hPa - - - -
1787889904 21.67° C 74% 1011.4 hPa - - - -
1787888104 22.22° C 72% 1011.6 hPa - - - -
1787886304 22.78° C 69% 1011.9 hPa - - - -
1787884504 23.33° C 67% 1011.9 hPa - - - -
1787882704 23.89° C 65% 1011.7 hPa - - - -
1787880904 23.89° C 64% 1011.5 hPa - - - -
1787879103 24.44° C 64% 1011.3 hPa - - - -
1787877303 24.44° C 65% 1011.2 hPa - - - -
1787875504 24.44° C 64% 1011 hPa - - - -
1787873704 25° C 63% 1010.5 hPa - - - -
1787871904 25.56° C 67% 1010.3 hPa - - - -

* Rain since midnight (hover to see other rain measurements)
** Current wind speed in m/s (hover to see current wind gust speed)